Home   Weather   Alexandria   Past weeks

Flag for Egypt Past Weather in Alexandria, Egypt — Yesterday and Last 2 Weeks

Now
73 °F

Partly sunny.


Feels Like: 77 °F
Forecast: 65 / 88 °F
Wind: 12 mph from Northwest

Location: Alexandria / Nouzha

Current Time: May 25, 2017 at 4:15:51 pm

Latest Report: May 25, 2017 at 3:00 pm


Visibility: N/A

Pressure: 30.01 "Hg

Humidity: 57%

Dew Point: 57 °F

Location of AlexandriaLocation

Past Weather in Alexandria — Graph

°F

Alexandria Temperature Yesterday

Maximum temperature yesterday: 77 °F (at 11:00 am)
Minimum temperature yesterday: 66 °F (at 4:00 am)
Average temperature yesterday: 72 °F

High & Low Weather Summary for the Past Weeks

 TemperatureHumidityPressure
High95 °F (May 22, 11:00 am)94% (May 23, 5:00 am)30.09 "Hg (May 23, 5:00 am)
Low61 °F (May 25, 2:00 am)14% (May 22, 10:00 am)29.74 "Hg (May 18, 3:00 am)
Average74 °F58%29.93 "Hg
* Reported May 10 2:00 pm — May 25 2:00 pm, Alexandria. Weather by CustomWeather, © 2017

Note: Actual official high and low records may vary slightly from our data, if they occured in-between our weather recording intervals... More about our weather records

Advertising

Alexandria Weather History for the Previous 24 Hours

Scroll right to see more
 ConditionsComfort  
Time TempWeatherWind HumidityBarometerVisibility
2:00 pm
Thu, May 25
77 °FPartly sunny.12 mph44%30.01 "HgN/A
1:00 pm77 °FPartly sunny.13 mph47%30.01 "HgN/A
12:00 pm77 °FPartly sunny.7 mph51%30.01 "Hg4 mi
11:00 am75 °FPartly sunny.3 mph57%30.01 "Hg4 mi
10:00 am73 °FPartly sunny.5 mph61%30.01 "Hg4 mi
9:00 am73 °FScattered clouds.3 mph61%30.01 "HgN/A
8:00 am72 °FSunny.3 mph69%30.01 "Hg10 mi
7:00 am64 °FClear.5 mph83%29.98 "Hg4 mi
6:00 am63 °FPassing clouds.3 mph83%29.98 "HgN/A
5:00 am63 °FPassing clouds.No wind88%29.98 "HgN/A
2:00 am61 °FClear.5 mph77%29.98 "Hg10 mi
12:00 am68 °FClear.6 mph69%30.01 "Hg10 mi
11:00 pm
Wed, May 24
70 °FClear.8 mph64%30.04 "Hg10 mi
10:00 pm70 °FClear.8 mph64%30.04 "Hg10 mi
7:00 pm72 °FClear.12 mph57%30.01 "Hg10 mi
6:00 pm73 °FSunny.12 mph57%30.01 "Hg10 mi
5:00 pm75 °FSunny.14 mph47%30.01 "Hg10 mi
4:00 pm77 °FSunny.8 mph44%30.01 "Hg10 mi
Weather by CustomWeather, © 2017

See weather overviewHow to use our weather pages